Tracking 19170 objects as of 23-May-2018
HD Live streaming from Space Station
objects crossing your sky now

COSMOS 1158

Track COSMOS 1158 now!
10-day predictions
COSMOS 1158 is classified as:


NORAD ID: 11693
Int'l Code: 1980-012C
Perigee: 1,440.0 km
Apogee: 1,484.0 km
Inclination: 74.0 °
Period: 115.0 minutes
Semi major axis: 7833 km
RCS: 0.707 m2 (medium)
Launch date: February 11, 1980
Source: Commonwealth of Independent States (former USSR) (CIS)
Launch site: PLESETSK MISSILE AND SPACE COMPLEX (PKMTR)
aabbcc
Your satellite tracking list
Your tracking list is empty




NASA's NSSDC Master Catalog

Two Line Element Set (TLE):
1 11693U 80012C   18142.61973344 -.00000023 +00000-0 -41701-4 0  9998
2 11693 074.0204 199.0160 0028076 276.0249 199.6814 12.52303517749713
Source of the keplerian elements: AFSPC